TimeMDT,TemperatureF,Dew PointF,Humidity,Sea Level PressureIn,VisibilityMPH,Wind Direction,Wind SpeedMPH,Gust SpeedMPH,PrecipitationIn,Events,Conditions,WindDirDegrees,DateUTC
12:53 AM,39.9,19.0,43,29.60,10.0,North,-9999.0,-,N/A,,Clear,0,2014-03-11 06:53:00
1:53 AM,34.0,26.1,73,29.65,10.0,NE,10.4,-,N/A,,Clear,50,2014-03-11 07:53:00
2:04 AM,33.1,27.0,78,29.75,10.0,SSE,9.2,-,N/A,,Scattered Clouds,150,2014-03-11 08:04:00
2:13 AM,34.0,30.0,85,29.76,10.0,ESE,6.9,-,N/A,,Mostly Cloudy,120,2014-03-11 08:13:00
2:53 AM,33.1,30.0,89,29.72,10.0,SE,6.9,-,N/A,,Overcast,130,2014-03-11 08:53:00
3:00 AM,33.1,28.9,85,29.80,10.0,East,5.8,-,N/A,,Overcast,100,2014-03-11 09:00:00
3:53 AM,32.0,28.0,85,29.75,10.0,SE,5.8,-,N/A,,Overcast,130,2014-03-11 09:53:00
4:03 AM,32.0,28.0,85,29.82,3.0,East,6.9,-,0.00,Snow,Light Snow,80,2014-03-11 10:03:00
4:05 AM,32.0,28.0,85,29.82,1.8,ENE,5.8,-,0.00,Snow,Light Snow,70,2014-03-11 10:05:00
4:13 AM,30.9,28.9,92,29.83,0.8,NE,5.8,-,0.00,Snow,Light Snow,40,2014-03-11 10:13:00
4:29 AM,30.9,30.0,96,29.84,0.5,NE,8.1,-,0.02,Fog-Snow,Snow,50,2014-03-11 10:29:00
4:53 AM,30.0,28.9,96,29.81,0.5,North,8.1,-,0.08,Fog-Snow,Snow,350,2014-03-11 10:53:00
5:15 AM,28.9,28.9,100,29.87,1.5,WNW,5.8,-,0.03,Snow,Light Snow,300,2014-03-11 11:15:00
5:23 AM,30.0,28.9,96,29.88,3.0,West,4.6,-,0.03,Snow,Light Snow,270,2014-03-11 11:23:00
5:53 AM,30.0,25.0,82,29.88,10.0,NW,11.5,-,0.03,,Overcast,310,2014-03-11 11:53:00
6:48 AM,30.2,24.8,80,29.97,1.8,NNW,13.8,26.5,0.00,Snow,Light Snow,340,2014-03-11 12:48:00
6:53 AM,30.0,25.0,82,29.97,0.8,North,20.7,26.5,0.00,Snow,Light Snow,360,2014-03-11 12:53:00
7:04 AM,28.9,27.0,92,30.00,0.5,North,10.4,-,0.01,Fog-Snow,Snow,360,2014-03-11 13:04:00
7:18 AM,28.0,28.0,100,30.01,0.5,NNW,5.8,-,0.03,Fog-Snow,Snow,330,2014-03-11 13:18:00
7:53 AM,28.0,27.0,96,30.06,0.8,North,6.9,-,0.08,Snow,Light Snow,350,2014-03-11 13:53:00
8:53 AM,28.0,28.0,100,30.12,0.2,NW,9.2,-,0.07,Fog-Snow,Snow,310,2014-03-11 14:53:00
9:04 AM,28.0,28.0,100,30.11,0.5,NNW,9.2,-,0.01,Fog-Snow,Snow,330,2014-03-11 15:04:00
9:43 AM,28.0,27.0,96,30.14,0.5,NW,10.4,-,0.04,Fog-Snow,Snow,320,2014-03-11 15:43:00
9:46 AM,28.0,27.0,96,30.14,0.5,NW,9.2,-,0.04,Fog-Snow,Snow,320,2014-03-11 15:46:00
9:53 AM,28.0,27.0,96,30.18,0.5,NW,12.7,-,0.05,Fog-Snow,Snow,310,2014-03-11 15:53:00
10:27 AM,28.0,26.1,92,30.17,0.8,NW,12.7,-,0.01,Snow,Light Snow,320,2014-03-11 16:27:00
10:40 AM,28.9,26.1,89,30.19,1.5,NW,12.7,-,0.02,Snow,Light Snow,320,2014-03-11 16:40:00
10:50 AM,30.2,24.8,80,30.19,3.0,NNW,9.2,-,0.02,Snow,Light Snow,340,2014-03-11 16:50:00
10:53 AM,30.0,25.0,82,30.23,3.0,NNW,11.5,-,0.02,Snow,Light Snow,340,2014-03-11 16:53:00
11:33 AM,30.0,23.0,75,30.23,10.0,North,12.7,-,0.00,,Overcast,360,2014-03-11 17:33:00
11:50 AM,30.2,23.0,75,30.24,10.0,North,15.0,20.7,0.00,,Overcast,350,2014-03-11 17:50:00
11:53 AM,30.9,21.9,69,30.28,10.0,North,15.0,-,0.00,,Overcast,360,2014-03-11 17:53:00
12:02 PM,30.9,21.9,69,30.25,10.0,North,18.4,23.0,0.00,,Overcast,360,2014-03-11 18:02:00
12:53 PM,30.9,19.9,64,30.31,10.0,North,11.5,21.9,0.00,,Overcast,350,2014-03-11 18:53:00
1:53 PM,30.9,21.0,67,30.36,2.5,NNW,12.7,-,0.00,Snow,Light Snow,330,2014-03-11 19:53:00
2:12 PM,30.0,21.0,69,30.30,2.0,NW,13.8,-,0.00,Snow,Light Snow,310,2014-03-11 20:12:00
2:21 PM,30.0,23.0,75,30.31,1.5,NW,10.4,-,0.00,Snow,Light Snow,310,2014-03-11 20:21:00
2:53 PM,30.9,25.0,79,30.38,2.5,WNW,9.2,-,0.00,Snow,Light Snow,290,2014-03-11 20:53:00
3:00 PM,30.0,24.1,79,30.30,4.0,West,8.1,-,0.00,Snow,Light Snow,280,2014-03-11 21:00:00
3:08 PM,30.0,24.1,79,30.30,8.0,West,9.2,-,0.00,Snow,Light Snow,260,2014-03-11 21:08:00
3:53 PM,30.0,23.0,75,30.39,10.0,SW,8.1,-,0.00,,Overcast,230,2014-03-11 21:53:00
4:53 PM,32.0,21.9,66,30.38,10.0,SW,6.9,-,N/A,,Mostly Cloudy,230,2014-03-11 22:53:00
5:53 PM,32.0,19.0,59,30.38,10.0,SW,4.6,-,N/A,,Clear,230,2014-03-11 23:53:00
6:53 PM,30.0,19.0,64,30.39,10.0,SW,5.8,-,N/A,,Clear,230,2014-03-12 00:53:00
7:53 PM,24.1,15.1,69,30.43,10.0,SSW,6.9,-,N/A,,Clear,210,2014-03-12 01:53:00
8:53 PM,21.9,12.0,66,30.44,10.0,SSW,4.6,-,N/A,,Clear,200,2014-03-12 02:53:00
9:53 PM,19.9,10.9,68,30.44,10.0,Calm,Calm,-,N/A,,Clear,0,2014-03-12 03:53:00
10:53 PM,19.0,10.0,68,30.43,10.0,North,4.6,-,N/A,,Clear,350,2014-03-12 04:53:00
11:53 PM,21.9,10.0,60,30.41,10.0,WSW,9.2,-,N/A,,Clear,240,2014-03-12 05:53:00